Wind_Speed
30 31 31 31 32 32 31 30 31 31 30 30 29 29 29 29 29 29 27 25 24 23 23 22 23 23 23 23 22 22 21 20 19 19 18 17 17 16 16 15 13 12 12 11 10 10 10 10 9
30 31 31 32 33 33 31 31 32 32 32 32 32 31 31 30 30 30 29 28 27 26 26 25 25 25 25 25 25 24 24 23 22 21 20 19 18 18 17 17 16 15 14 13 12 12 12 11 11
32 32 32 32 33 32 32 32 33 33 33 34 34 33 33 32 32 32 31 31 30 30 29 29 28 27 27 27 27 27 26 26 25 24 22 22 21 19 19 19 18 17 16 16 15 14 13 13 13
34 34 33 33 32 32 33 33 34 34 34 34 35 35 35 35 34 34 34 34 33 33 32 32 31 30 30 30 29 29 29 28 27 26 25 24 23 22 21 20 20 19 18 18 17 16 15 15 15
35 35 34 33 32 33 33 34 34 35 34 35 35 35 35 36 37 37 37 36 36 35 34 34 34 34 33 32 31 31 31 30 29 28 27 26 26 25 23 22 22 21 20 19 19 18 17 17 16
36 36 36 34 33 33 34 34 34 35 35 35 35 36 36 37 38 38 38 38 38 37 36 36 36 35 35 35 34 33 33 32 31 31 30 28 27 27 25 24 23 23 22 22 20 20 19 18 18
36 36 35 34 34 33 33 33 33 33 34 34 35 36 36 36 38 39 39 39 39 39 38 38 38 38 37 37 36 35 35 34 33 32 31 30 29 28 27 26 25 24 24 23 22 21 21 20 20
36 36 35 34 33 33 33 33 32 32 33 33 33 34 34 35 36 38 40 40 40 40 40 40 39 39 39 39 38 38 37 36 35 34 34 32 31 30 29 28 28 27 26 25 24 23 23 22 21
35 35 34 33 32 33 33 33 33 33 33 33 33 33 33 34 35 36 38 40 40 40 40 40 40 40 40 40 40 39 39 38 37 36 36 35 34 32 31 31 30 29 28 27 26 25 25 24 23
35 35 33 32 32 33 32 32 32 33 34 34 34 34 34 34 35 36 36 38 39 39 40 40 41 41 41 41 41 41 41 40 39 39 38 38 36 35 34 33 32 31 30 29 28 27 27 26 25
34 34 33 32 32 32 32 31 31 32 33 33 34 34 34 35 35 36 37 38 39 40 41 42 41 42 42 42 42 42 42 42 41 40 40 40 39 37 36 35 34 33 32 31 30 29 28 28 27
33 33 32 32 31 31 31 31 31 31 32 33 33 34 35 36 36 37 37 38 39 40 41 42 43 43 43 43 43 43 43 43 42 41 40 40 40 39 38 37 36 35 35 34 33 31 30 30 29
31 31 32 32 31 31 31 31 31 31 32 33 33 34 34 35 36 37 38 39 39 40 41 43 44 44 44 45 45 44 44 44 43 43 42 41 40 39 39 38 38 37 36 35 35 34 33 32 31
28 29 30 31 31 31 31 31 31 31 32 32 32 32 32 32 33 35 36 37 39 40 42 43 45 45 46 45 45 45 45 45 45 44 44 43 42 41 40 39 39 38 37 37 37 36 35 34 33
28 28 29 30 30 30 30 30 30 30 31 31 31 31 31 31 32 33 34 35 37 38 40 42 44 46 47 47 46 46 45 46 46 46 45 45 44 42 42 42 41 39 39 38 38 39 38 36 35
27 27 27 27 27 27 28 28 28 29 29 30 30 30 30 30 30 32 33 34 35 37 38 41 43 45 47 48 47 47 47 47 48 47 46 46 45 44 44 43 42 41 41 41 41 40 40 39 37
25 25 25 25 25 26 27 27 27 28 28 28 28 28 28 28 29 30 31 33 35 36 37 38 41 43 45 47 48 48 48 49 49 49 48 47 46 46 46 44 44 43 42 43 42 42 42 40 39
22 22 22 22 23 24 25 26 26 27 27 27 27 28 28 27 28 28 29 31 33 35 36 37 38 40 43 45 47 47 48 49 50 50 49 49 47 46 47 46 44 44 44 44 44 43 42 41 40
20 20 20 20 21 22 23 24 25 25 25 26 26 26 27 27 28 28 29 30 32 33 34 34 36 38 41 44 46 46 47 48 49 50 51 50 49 48 48 47 46 46 46 46 45 44 43 42 42
18 18 19 19 19 19 20 21 22 23 24 24 25 26 26 26 27 28 29 29 29 30 30 31 32 35 37 39 41 43 46 47 49 51 51 51 50 50 49 49 49 48 48 48 46 45 45 44 44
15 16 16 16 16 17 18 18 19 20 21 22 23 24 24 24 25 27 27 26 27 26 27 29 31 33 35 37 40 41 44 46 48 49 50 50 50 50 50 50 51 50 50 50 49 48 47 46 46
12 14 14 14 15 15 16 16 17 18 19 20 21 21 22 23 23 23 23 23 24 25 26 26 27 30 33 36 38 40 43 44 45 46 47 48 49 49 50 51 51 51 51 50 51 50 49 48 48
10 11 12 13 14 14 15 16 16 17 18 18 18 19 20 21 21 21 21 21 22 23 24 25 26 28 30 32 35 37 38 39 41 43 43 45 47 49 48 49 50 51 51 50 51 51 50 49 48
8 9 10 11 12 13 13 14 14 15 16 17 17 18 18 19 19 20 20 20 21 22 23 24 25 26 27 28 30 32 34 36 38 39 40 42 44 46 46 46 48 49 49 49 49 49 48 48 48
7 8 8 9 9 10 11 12 13 14 15 15 16 16 16 16 18 18 19 20 20 20 22 23 23 24 24 25 27 29 32 35 37 38 40 41 42 43 43 45 45 46 47 48 48 48 49 49 48
6 7 8 9 9 9 10 12 12 13 14 14 14 15 15 15 16 17 17 18 19 20 20 21 22 23 24 25 25 26 28 30 32 34 36 38 39 40 41 42 42 43 45 47 47 47 48 49 49
7 7 8 9 10 10 10 11 12 12 13 13 13 14 14 14 14 14 15 16 18 18 18 18 19 21 22 23 24 24 25 27 29 32 34 36 37 38 39 41 42 42 43 45 47 47 48 49 50
7 7 8 9 10 11 10 11 12 12 12 12 13 14 13 13 13 14 15 15 16 17 16 15 16 17 18 20 21 22 24 25 27 28 29 31 33 35 37 39 39 41 43 45 47 47 47 49 50
7 8 9 10 10 11 11 11 12 12 12 13 13 13 13 14 15 15 15 16 16 16 16 15 15 15 15 16 17 19 21 22 23 25 27 29 30 32 35 38 38 39 41 44 46 45 46 48 48
9 10 10 11 12 12 13 12 13 13 13 14 14 14 14 15 15 15 15 14 14 14 14 14 14 14 14 15 15 16 18 21 22 24 26 28 29 31 33 34 36 37 39 41 44 45 45 47 47
Wind_Direction
246 247 247 247 247 247 248 247 247 247 247 247 247 247 247 248 248 250 250 250 251 251 251 251 251 251 251 250 249 249 250 252 253 254 254 255 256 256 256 256 257 259 261 264 265 263 260 257 255
247 247 247 248 248 249 248 248 249 249 249 249 249 249 249 250 251 251 251 251 251 252 252 251 251 251 252 252 251 250 250 251 252 253 253 253 255 255 255 255 255 256 259 261 263 262 260 258 257
247 247 248 248 249 250 249 249 250 250 250 250 250 250 251 251 252 252 252 252 251 252 252 252 251 251 251 252 252 251 251 251 251 251 252 252 253 254 255 254 255 255 256 257 259 261 261 260 258
247 247 248 248 250 251 250 249 249 250 250 251 251 250 251 252 252 252 252 252 252 252 252 252 251 251 251 251 251 251 251 251 250 250 251 252 252 253 254 254 254 255 255 256 258 258 259 260 259
246 246 247 248 249 250 250 250 249 250 250 251 251 251 251 251 252 252 252 252 252 251 251 252 251 250 250 250 251 251 251 250 250 250 250 251 251 252 252 252 253 254 255 256 257 257 258 258 259
246 246 247 249 250 250 250 250 251 251 250 250 250 251 251 252 252 252 252 252 252 252 251 251 252 251 250 250 249 250 250 250 250 249 250 249 250 251 251 252 251 252 254 255 256 258 257 258 258
246 247 248 249 249 249 250 250 251 251 251 251 250 251 251 251 252 253 252 252 252 251 251 250 251 250 250 250 249 249 249 249 250 249 249 249 249 250 251 251 251 252 252 254 255 256 257 258 257
245 246 247 247 248 248 249 250 251 251 252 252 252 252 252 253 253 253 252 252 251 251 250 250 250 250 250 250 249 249 249 249 250 249 248 248 248 249 250 250 251 252 253 254 254 254 256 258 257
243 244 245 246 247 249 250 250 251 252 252 253 254 255 255 256 255 254 253 251 250 250 250 250 249 249 249 250 249 249 249 248 248 249 248 248 247 248 249 250 251 252 253 254 254 253 255 257 258
241 243 244 245 246 248 250 250 251 252 253 254 255 256 257 257 256 255 253 252 250 249 249 249 250 250 249 249 249 249 248 247 247 248 248 248 247 248 248 250 250 251 252 253 254 254 255 257 258
240 241 242 243 244 247 249 250 252 253 255 256 257 258 258 257 256 255 254 253 252 250 249 249 250 250 250 250 249 248 247 246 246 247 247 247 247 247 247 249 250 250 251 252 254 255 255 256 257
237 240 241 242 244 247 249 251 253 253 255 257 259 259 258 258 256 255 255 254 253 251 250 249 249 249 250 249 249 248 247 245 245 246 247 246 246 246 247 248 249 250 250 251 254 255 254 256 257
237 239 241 243 245 247 248 250 252 253 256 258 260 262 262 260 259 259 257 256 254 252 251 249 249 249 249 248 247 247 247 245 243 244 245 246 246 246 247 248 249 250 250 251 252 253 253 255 257
236 238 241 243 245 247 248 249 251 252 255 258 261 262 261 260 260 260 259 257 255 254 252 250 249 248 247 247 246 246 247 245 243 244 245 245 245 246 248 248 250 250 250 250 251 252 253 254 256
235 237 241 243 245 247 248 249 250 251 254 258 261 262 261 261 262 260 259 258 257 256 255 253 251 249 248 247 246 246 246 245 244 244 243 244 245 247 249 249 250 251 251 250 250 251 252 253 255
235 237 240 243 245 246 248 249 250 252 255 258 261 260 260 261 263 262 261 260 258 258 258 257 254 252 249 247 246 245 246 245 243 243 243 243 245 246 248 249 250 251 251 251 251 251 251 252 254
234 238 242 244 246 247 249 250 252 254 256 259 260 260 260 262 264 265 263 262 261 259 259 257 255 253 250 248 247 245 245 243 242 243 242 241 242 245 246 248 249 250 252 252 251 251 251 252 253
236 239 243 246 248 249 250 251 252 255 256 258 260 260 261 263 265 266 266 266 263 263 261 260 257 254 251 248 246 246 245 243 242 242 241 240 242 245 246 248 248 249 250 251 251 250 250 251 251
236 238 241 246 248 248 248 250 251 253 255 258 260 260 262 264 266 267 268 268 266 264 263 261 259 257 252 249 247 246 245 243 243 242 241 241 243 244 246 246 247 249 250 250 249 249 249 250 250
234 239 243 245 249 250 250 252 254 254 256 259 260 261 263 266 266 269 272 271 268 266 264 262 260 259 256 252 249 247 245 244 242 241 241 241 242 245 245 245 247 249 249 248 248 248 249 250 252
236 239 240 244 247 250 253 254 255 257 260 261 263 263 264 269 271 273 275 273 269 268 267 265 263 260 258 255 251 247 246 245 243 241 240 241 243 245 245 246 246 246 246 247 248 247 248 250 251
237 237 239 243 246 251 255 257 257 261 263 265 265 265 267 270 273 275 277 278 274 270 270 270 267 262 259 256 251 250 247 245 242 239 240 242 242 244 244 245 245 244 245 246 246 247 248 250 251
239 240 245 249 249 251 256 261 261 264 265 266 267 268 270 272 273 276 281 282 278 274 272 271 270 266 262 258 254 250 248 245 240 240 242 243 243 244 245 246 244 244 245 245 245 246 249 250 251
244 247 254 255 256 258 260 265 266 269 271 270 270 272 274 276 276 279 281 283 282 280 277 274 272 269 263 260 255 252 248 244 242 242 242 243 242 243 244 245 244 243 244 244 244 245 247 248 250
256 255 258 261 262 265 267 271 276 277 275 272 272 274 277 278 280 281 282 283 284 283 282 275 272 270 267 262 257 253 249 244 242 244 245 244 243 243 244 245 245 244 244 243 243 246 246 247 249
262 259 262 267 269 271 274 278 282 282 278 275 274 276 279 280 281 282 284 287 287 288 286 279 273 269 268 265 259 253 251 247 244 244 244 243 244 245 246 246 246 246 244 243 243 245 246 247 249
266 265 270 274 277 279 282 285 286 286 287 283 282 282 281 281 284 286 289 293 293 290 286 282 277 273 268 266 262 255 251 249 248 246 246 245 247 247 247 246 247 247 244 243 243 246 248 250 251
268 269 272 277 284 287 287 291 293 289 286 287 286 284 284 285 288 290 292 297 295 289 288 285 283 280 272 266 261 257 252 249 250 249 246 246 248 249 248 248 248 248 247 246 246 247 249 250 251
272 271 272 277 283 288 293 296 297 292 288 286 286 285 287 289 289 290 291 294 295 291 288 286 284 282 278 272 266 259 256 252 249 248 248 246 249 249 249 249 250 250 250 249 248 250 251 252 253
274 274 274 277 282 288 294 300 297 295 292 291 289 286 287 290 292 292 293 296 298 296 292 288 286 284 279 275 271 265 259 255 253 252 251 250 252 251 251 253 253 253 252 252 252 254 254 254 255
Height
5816 5818 5820 5822 5824 5826 5828 5831 5832 5833 5835 5836 5838 5840 5842 5844 5846 5849 5850 5850 5851 5853 5854 5856 5857 5858 5859 5861 5862 5863 5865 5866 5867 5869 5870 5871 5872 5873 5874 5875 5875 5876 5877 5877 5877 5878 5878 5878 5878
5810 5812 5814 5816 5818 5820 5823 5825 5826 5827 5829 5830 5832 5834 5836 5837 5840 5841 5843 5845 5846 5848 5849 5851 5853 5854 5855 5857 5858 5860 5861 5863 5864 5865 5867 5868 5869 5870 5871 5872 5873 5874 5874 5875 5875 5876 5876 5876 5877
5803 5805 5808 5810 5812 5815 5817 5818 5819 5821 5822 5824 5826 5828 5830 5832 5833 5835 5837 5839 5841 5842 5844 5846 5847 5849 5850 5852 5853 5855 5857 5858 5860 5862 5863 5864 5866 5867 5868 5869 5870 5871 5872 5872 5873 5873 5874 5874 5875
5797 5799 5801 5804 5806 5809 5810 5811 5812 5814 5816 5817 5819 5821 5823 5825 5827 5828 5830 5832 5834 5836 5837 5839 5841 5843 5845 5847 5848 5850 5852 5854 5855 5857 5859 5861 5862 5863 5865 5866 5867 5868 5869 5869 5870 5871 5871 5872 5873
5789 5792 5794 5797 5800 5801 5802 5804 5805 5807 5809 5811 5812 5814 5816 5817 5819 5821 5822 5825 5827 5829 5831 5832 5835 5837 5839 5841 5843 5844 5846 5848 5850 5852 5854 5856 5858 5859 5861 5862 5863 5864 5865 5866 5867 5868 5869 5869 5870
5782 5784 5788 5790 5793 5794 5795 5797 5798 5800 5802 5804 5805 5807 5809 5810 5811 5813 5815 5817 5819 5821 5823 5825 5827 5829 5832 5834 5836 5838 5840 5842 5844 5847 5849 5851 5853 5855 5856 5858 5859 5860 5862 5863 5864 5865 5865 5866 5867
5775 5778 5780 5783 5785 5786 5788 5789 5791 5793 5794 5796 5798 5800 5801 5803 5804 5805 5807 5809 5810 5812 5815 5817 5819 5822 5824 5827 5829 5831 5833 5836 5838 5841 5843 5845 5847 5849 5851 5853 5855 5856 5857 5859 5860 5861 5862 5863 5863
5766 5770 5772 5775 5777 5779 5781 5783 5784 5786 5787 5789 5791 5792 5794 5795 5795 5796 5798 5800 5802 5804 5806 5809 5811 5814 5816 5819 5821 5824 5826 5829 5831 5834 5837 5839 5842 5844 5846 5848 5850 5851 5853 5854 5855 5857 5858 5859 5859
5759 5763 5765 5768 5770 5772 5774 5776 5778 5779 5781 5782 5784 5785 5786 5787 5787 5788 5789 5791 5793 5795 5797 5800 5803 5806 5808 5810 5813 5816 5818 5821 5824 5827 5830 5832 5835 5838 5840 5842 5844 5846 5848 5849 5851 5852 5853 5854 5855
5751 5755 5758 5761 5763 5765 5767 5769 5771 5772 5773 5775 5776 5777 5778 5778 5779 5780 5781 5782 5784 5786 5789 5791 5794 5797 5799 5802 5804 5807 5810 5813 5816 5819 5822 5825 5828 5831 5834 5836 5838 5840 5842 5844 5845 5847 5848 5850 5851
5743 5747 5751 5753 5755 5757 5760 5762 5764 5765 5767 5767 5768 5769 5769 5770 5770 5771 5772 5774 5775 5777 5780 5782 5785 5787 5790 5792 5795 5798 5801 5804 5808 5811 5814 5817 5821 5824 5827 5829 5831 5834 5836 5838 5840 5842 5843 5844 5845
5736 5740 5743 5746 5748 5751 5753 5755 5757 5758 5759 5760 5760 5760 5761 5761 5762 5763 5764 5765 5766 5768 5770 5772 5775 5778 5780 5782 5785 5788 5792 5795 5799 5803 5806 5809 5813 5816 5819 5822 5824 5827 5829 5832 5834 5835 5837 5838 5840
5729 5733 5736 5739 5742 5744 5746 5748 5749 5751 5751 5752 5752 5752 5753 5753 5754 5755 5755 5756 5757 5759 5760 5762 5765 5768 5770 5773 5776 5779 5782 5786 5790 5794 5797 5801 5805 5809 5812 5815 5816 5819 5822 5825 5827 5829 5831 5832 5833
5724 5727 5730 5732 5734 5737 5739 5741 5742 5743 5743 5744 5745 5745 5745 5745 5746 5746 5747 5747 5748 5750 5751 5752 5754 5757 5759 5762 5765 5769 5772 5776 5780 5784 5788 5792 5796 5800 5804 5807 5809 5812 5814 5817 5819 5821 5823 5825 5827
5718 5721 5723 5726 5728 5730 5732 5734 5735 5736 5736 5737 5737 5738 5738 5738 5738 5738 5738 5739 5739 5740 5741 5742 5744 5746 5748 5751 5755 5758 5762 5766 5770 5774 5779 5783 5787 5791 5795 5798 5801 5804 5806 5809 5811 5813 5815 5817 5819
5713 5716 5718 5720 5722 5724 5727 5728 5729 5729 5730 5730 5730 5731 5731 5731 5731 5730 5730 5730 5731 5731 5731 5732 5733 5735 5737 5740 5744 5748 5751 5755 5760 5764 5769 5773 5778 5782 5785 5788 5792 5796 5798 5800 5802 5805 5807 5809 5812
5708 5711 5713 5716 5717 5718 5720 5722 5722 5723 5723 5724 5724 5724 5724 5724 5723 5723 5722 5722 5722 5722 5722 5722 5722 5724 5726 5729 5732 5736 5740 5744 5749 5754 5759 5763 5768 5771 5775 5779 5783 5786 5789 5791 5793 5796 5798 5801 5803
5705 5707 5709 5710 5712 5713 5714 5716 5716 5717 5717 5717 5717 5717 5717 5717 5717 5716 5715 5714 5713 5713 5713 5712 5713 5714 5715 5718 5721 5725 5729 5733 5738 5743 5748 5753 5757 5761 5765 5769 5772 5776 5779 5781 5784 5786 5789 5792 5794
5700 5703 5704 5706 5706 5708 5709 5710 5711 5711 5711 5712 5712 5711 5711 5711 5710 5709 5708 5706 5705 5704 5704 5704 5704 5704 5705 5707 5710 5714 5718 5722 5726 5731 5736 5742 5746 5751 5754 5758 5762 5765 5768 5771 5774 5776 5779 5782 5784
5696 5698 5700 5702 5702 5703 5704 5705 5705 5706 5706 5706 5706 5706 5705 5705 5704 5702 5700 5699 5697 5696 5696 5695 5695 5695 5696 5698 5700 5704 5707 5711 5716 5720 5725 5730 5735 5739 5743 5747 5750 5754 5757 5760 5763 5766 5768 5772 5774
5693 5695 5697 5698 5698 5699 5700 5701 5701 5701 5701 5701 5701 5700 5700 5699 5697 5696 5694 5692 5690 5689 5689 5688 5687 5687 5687 5689 5691 5694 5697 5700 5704 5709 5713 5718 5723 5727 5731 5735 5739 5742 5746 5749 5752 5755 5758 5761 5764
5691 5692 5693 5694 5695 5695 5697 5697 5698 5697 5697 5696 5696 5695 5694 5693 5691 5690 5688 5686 5684 5683 5682 5681 5680 5679 5679 5680 5682 5684 5687 5690 5693 5697 5702 5706 5711 5715 5718 5722 5726 5730 5733 5737 5741 5744 5748 5750 5753
5689 5690 5691 5691 5692 5693 5693 5693 5694 5693 5693 5692 5691 5690 5689 5687 5686 5684 5682 5680 5679 5677 5676 5674 5673 5672 5672 5673 5674 5675 5678 5680 5683 5687 5691 5695 5699 5703 5706 5710 5713 5718 5722 5725 5729 5733 5736 5739 5742
5686 5688 5688 5688 5689 5690 5690 5690 5690 5689 5688 5687 5686 5685 5684 5683 5681 5679 5678 5676 5674 5672 5670 5668 5667 5666 5665 5665 5666 5668 5670 5672 5675 5679 5682 5685 5689 5692 5695 5699 5702 5706 5710 5714 5718 5721 5725 5728 5731
5685 5686 5686 5686 5686 5687 5687 5686 5686 5685 5684 5683 5682 5681 5679 5678 5676 5674 5673 5671 5669 5667 5665 5663 5661 5660 5659 5659 5659 5660 5662 5664 5667 5670 5672 5675 5679 5682 5685 5689 5692 5695 5699 5703 5707 5710 5713 5717 5720
5683 5684 5685 5684 5684 5684 5683 5683 5683 5681 5680 5679 5678 5677 5675 5674 5672 5670 5668 5666 5664 5662 5660 5658 5656 5655 5654 5653 5653 5654 5655 5657 5659 5661 5663 5666 5670 5673 5676 5679 5682 5685 5688 5692 5695 5698 5702 5705 5708
5682 5682 5682 5682 5681 5681 5680 5680 5679 5677 5676 5675 5674 5673 5671 5670 5669 5667 5664 5662 5660 5658 5656 5653 5652 5650 5648 5647 5647 5648 5649 5650 5651 5653 5655 5658 5661 5663 5666 5669 5672 5675 5677 5681 5684 5687 5690 5693 5696
5681 5680 5680 5679 5678 5677 5678 5677 5676 5674 5673 5672 5670 5669 5668 5666 5665 5663 5661 5658 5656 5653 5651 5649 5647 5646 5644 5643 5642 5642 5642 5643 5645 5646 5648 5650 5653 5655 5657 5659 5662 5664 5667 5670 5673 5675 5679 5681 5684
5679 5678 5677 5677 5676 5675 5674 5676 5673 5671 5669 5668 5667 5665 5663 5662 5660 5659 5657 5655 5652 5649 5647 5645 5643 5642 5640 5638 5637 5636 5637 5637 5638 5640 5641 5643 5645 5647 5649 5651 5653 5654 5657 5659 5661 5664 5666 5668 5671
5676 5675 5675 5675 5674 5672 5671 5674 5669 5667 5665 5664 5663 5661 5659 5658 5656 5654 5652 5650 5648 5646 5643 5641 5639 5638 5636 5634 5633 5632 5632 5632 5633 5634 5635 5636 5637 5639 5640 5642 5643 5644 5646 5647 5650 5652 5654 5656 5658